QPF
0.00 0.00 0.00 0.00 0.00 0.00 0.00 0.00 0.00 0.00 0.00 0.00 0.00 0.00 0.00 0.00 0.00 0.00 0.00 0.00 0.00 0.00 0.00 0.00 0.00 0.00 0.00 0.00 0.00 0.00 0.00 0.00 0.00 0.00 0.00 0.00 0.00 0.00 0.00 0.00 0.00 0.00
0.00 0.00 0.00 0.00 0.00 0.00 0.00 0.00 0.00 0.00 0.00 0.00 0.00 0.00 0.00 0.00 0.00 0.00 0.00 0.00 0.00 0.00 0.00 0.00 0.00 0.00 0.00 0.00 0.00 0.00 0.00 0.00 0.00 0.00 0.00 0.00 0.00 0.00 0.00 0.00 0.00 0.00
0.00 0.00 0.00 0.00 0.00 0.00 0.00 0.00 0.00 0.00 0.00 0.00 0.00 0.00 0.00 0.00 0.00 0.00 0.00 0.00 0.00 0.00 0.00 0.00 0.00 0.00 0.00 0.00 0.00 0.00 0.00 0.00 0.00 0.00 0.00 0.00 0.00 0.00 0.00 0.00 0.00 0.00
0.00 0.00 0.00 0.00 0.00 0.00 0.00 0.00 0.00 0.00 0.00 0.00 0.00 0.00 0.00 0.00 0.00 0.00 0.00 0.00 0.00 0.00 0.00 0.00 0.00 0.00 0.00 0.00 0.00 0.00 0.00 0.00 0.00 0.00 0.00 0.00 0.00 0.00 0.00 0.00 0.00 0.00
0.00 0.00 0.00 0.00 0.00 0.00 0.00 0.00 0.00 0.00 0.00 0.00 0.00 0.00 0.00 0.00 0.00 0.00 0.00 0.00 0.00 0.00 0.00 0.00 0.00 0.00 0.00 0.00 0.00 0.00 0.00 0.00 0.00 0.00 0.00 0.00 0.00 0.00 0.00 0.00 0.00 0.00
0.00 0.00 0.00 0.00 0.00 0.00 0.00 0.00 0.00 0.00 0.00 0.00 0.00 0.00 0.00 0.00 0.00 0.00 0.00 0.00 0.00 0.00 0.00 0.00 0.00 0.00 0.00 0.00 0.00 0.00 0.00 0.00 0.00 0.00 0.00 0.00 0.00 0.00 0.00 0.00 0.00 0.00
0.00 0.00 0.00 0.00 0.00 0.00 0.00 0.00 0.00 0.00 0.00 0.00 0.00 0.00 0.00 0.00 0.00 0.00 0.00 0.00 0.00 0.00 0.00 0.00 0.00 0.00 0.00 0.00 0.00 0.00 0.00 0.00 0.00 0.00 0.00 0.00 0.00 0.00 0.00 0.00 0.00 0.00
0.00 0.00 0.00 0.00 0.00 0.00 0.00 0.00 0.00 0.00 0.00 0.00 0.00 0.00 0.00 0.00 0.00 0.00 0.00 0.00 0.00 0.00 0.00 0.00 0.00 0.00 0.00 0.00 0.00 0.00 0.00 0.00 0.00 0.00 0.00 0.00 0.00 0.00 0.00 0.00 0.00 0.00
0.00 0.00 0.00 0.00 0.00 0.00 0.00 0.00 0.00 0.00 0.00 0.00 0.00 0.00 0.00 0.00 0.00 0.00 0.00 0.00 0.00 0.00 0.00 0.00 0.00 0.00 0.00 0.00 0.00 0.00 0.00 0.00 0.00 0.00 0.00 0.00 0.00 0.00 0.00 0.00 0.00 0.00
0.00 0.00 0.00 0.00 0.00 0.00 0.00 0.00 0.00 0.00 0.00 0.00 0.00 0.00 0.00 0.00 0.00 0.00 0.00 0.00 0.00 0.00 0.00 0.00 0.00 0.00 0.00 0.00 0.00 0.00 0.00 0.00 0.00 0.00 0.00 0.00 0.00 0.00 0.00 0.00 0.00 0.00
0.00 0.00 0.00 0.00 0.00 0.00 0.00 0.00 0.00 0.00 0.00 0.00 0.00 0.00 0.00 0.00 0.00 0.00 0.00 0.00 0.00 0.00 0.00 0.00 0.00 0.00 0.00 0.00 0.00 0.00 0.00 0.00 0.00 0.00 0.00 0.00 0.00 0.00 0.00 0.00 0.00 0.00
0.00 0.00 0.00 0.00 0.00 0.00 0.00 0.00 0.00 0.00 0.00 0.00 0.00 0.00 0.00 0.00 0.00 0.00 0.00 0.00 0.00 0.00 0.00 0.00 0.00 0.00 0.00 0.00 0.00 0.00 0.00 0.00 0.00 0.00 0.00 0.00 0.00 0.00 0.00 0.00 0.00 0.00
0.00 0.00 0.00 0.00 0.00 0.00 0.00 0.00 0.00 0.00 0.00 0.00 0.00 0.00 0.00 0.00 0.00 0.00 0.00 0.00 0.00 0.00 0.00 0.00 0.00 0.00 0.00 0.00 0.00 0.00 0.00 0.00 0.00 0.00 0.00 0.00 0.00 0.00 0.00 0.00 0.00 0.00
0.00 0.00 0.00 0.00 0.00 0.00 0.00 0.00 0.00 0.00 0.00 0.00 0.00 0.00 0.00 0.00 0.00 0.00 0.00 0.00 0.00 0.00 0.00 0.00 0.00 0.00 0.00 0.00 0.00 0.00 0.00 0.00 0.00 0.00 0.00 0.00 0.00 0.00 0.00 0.00 0.00 0.00
0.00 0.00 0.00 0.00 0.00 0.00 0.00 0.00 0.00 0.00 0.00 0.00 0.00 0.00 0.00 0.00 0.00 0.00 0.00 0.00 0.00 0.00 0.00 0.00 0.00 0.00 0.00 0.00 0.00 0.00 0.00 0.00 0.00 0.00 0.00 0.00 0.00 0.00 0.00 0.00 0.00 0.00
0.00 0.00 0.00 0.00 0.00 0.00 0.00 0.00 0.00 0.00 0.00 0.00 0.00 0.00 0.00 0.00 0.00 0.00 0.00 0.00 0.00 0.00 0.00 0.00 0.00 0.00 0.00 0.00 0.00 0.00 0.00 0.00 0.00 0.00 0.00 0.00 0.00 0.00 0.00 0.00 0.00 0.00
0.00 0.00 0.00 0.00 0.00 0.00 0.00 0.00 0.00 0.00 0.00 0.00 0.00 0.00 0.00 0.00 0.00 0.00 0.00 0.00 0.00 0.00 0.00 0.00 0.00 0.00 0.00 0.00 0.00 0.00 0.00 0.00 0.00 0.00 0.00 0.00 0.00 0.00 0.00 0.00 0.00 0.00
0.00 0.00 0.00 0.00 0.00 0.00 0.00 0.00 0.00 0.00 0.00 0.00 0.00 0.00 0.00 0.00 0.00 0.00 0.00 0.00 0.00 0.00 0.00 0.00 0.00 0.00 0.00 0.00 0.00 0.00 0.00 0.00 0.00 0.00 0.00 0.00 0.00 0.00 0.00 0.00 0.00 0.00
0.00 0.00 0.00 0.00 0.00 0.00 0.00 0.00 0.00 0.00 0.00 0.00 0.00 0.00 0.00 0.00 0.00 0.00 0.00 0.00 0.00 0.00 0.00 0.00 0.00 0.00 0.00 0.00 0.00 0.00 0.00 0.00 0.00 0.00 0.00 0.00 0.00 0.00 0.00 0.00 0.00 0.00
0.00 0.00 0.00 0.00 0.00 0.00 0.00 0.00 0.00 0.00 0.00 0.00 0.00 0.00 0.00 0.00 0.00 0.00 0.00 0.00 0.00 0.00 0.00 0.00 0.00 0.00 0.00 0.00 0.00 0.00 0.00 0.00 0.00 0.00 0.00 0.00 0.00 0.00 0.00 0.00 0.00 0.00
0.00 0.00 0.00 0.00 0.00 0.00 0.00 0.00 0.00 0.00 0.00 0.00 0.00 0.00 0.00 0.00 0.00 0.00 0.00 0.00 0.00 0.00 0.00 0.00 0.00 0.00 0.00 0.00 0.00 0.00 0.00 0.00 0.00 0.00 0.00 0.00 0.00 0.00 0.00 0.00 0.00 0.00
0.00 0.00 0.00 0.00 0.00 0.00 0.00 0.00 0.00 0.00 0.00 0.00 0.00 0.00 0.00 0.00 0.00 0.00 0.00 0.00 0.00 0.00 0.00 0.00 0.00 0.00 0.00 0.00 0.00 0.00 0.00 0.00 0.00 0.00 0.00 0.00 0.00 0.00 0.00 0.00 0.00 0.00
0.00 0.00 0.00 0.00 0.00 0.00 0.00 0.00 0.00 0.00 0.00 0.00 0.00 0.00 0.00 0.00 0.00 0.00 0.00 0.00 0.00 0.00 0.00 0.00 0.00 0.00 0.00 0.00 0.00 0.00 0.00 0.00 0.00 0.00 0.00 0.00 0.00 0.00 0.00 0.00 0.00 0.00
0.00 0.00 0.00 0.00 0.00 0.00 0.00 0.00 0.00 0.00 0.00 0.00 0.00 0.00 0.00 0.00 0.00 0.00 0.00 0.00 0.00 0.00 0.00 0.00 0.00 0.00 0.00 0.00 0.00 0.00 0.00 0.00 0.00 0.00 0.00 0.00 0.00 0.00 0.00 0.00 0.00 0.00
0.00 0.00 0.00 0.00 0.00 0.00 0.00 0.00 0.00 0.00 0.00 0.00 0.00 0.00 0.00 0.00 0.00 0.00 0.00 0.00 0.00 0.00 0.00 0.00 0.00 0.00 0.00 0.00 0.00 0.00 0.00 0.00 0.00 0.00 0.00 0.00 0.00 0.00 0.00 0.00 0.00 0.00
0.00 0.00 0.00 0.00 0.00 0.00 0.00 0.00 0.00 0.00 0.00 0.00 0.00 0.00 0.00 0.00 0.00 0.00 0.00 0.00 0.00 0.00 0.00 0.00 0.00 0.00 0.00 0.00 0.00 0.00 0.00 0.00 0.00 0.00 0.00 0.00 0.00 0.00 0.00 0.00 0.00 0.00
MSLP
1014.72 1015.04 1015.44 1015.76 1016.00 1016.12 1016.44 1016.84 1017.04 1017.28 1017.48 1017.68 1017.92 1018.00 1018.04 1018.04 1018.20 1018.44 1018.56 1018.76 1018.92 1019.04 1019.12 1019.24 1019.36 1019.56 1019.72 1019.88 1020.04 1020.24 1020.44 1020.64 1020.72 1020.84 1021.04 1021.16 1021.32 1021.44 1021.64 1021.68 1021.80 1021.84
1014.36 1014.64 1014.96 1015.28 1015.68 1015.84 1016.08 1016.24 1016.60 1016.84 1017.20 1017.36 1017.44 1017.60 1017.72 1017.88 1017.96 1018.12 1018.40 1018.60 1018.72 1018.84 1018.92 1019.08 1019.20 1019.32 1019.52 1019.72 1019.92 1020.16 1020.36 1020.48 1020.68 1020.56 1020.92 1021.08 1021.16 1021.24 1021.36 1021.40 1021.48 1021.56
1014.00 1014.40 1014.72 1015.12 1015.32 1015.52 1015.68 1015.88 1016.12 1016.44 1016.76 1016.96 1017.16 1017.36 1017.52 1017.52 1017.76 1017.88 1018.08 1018.32 1018.56 1018.68 1018.80 1018.84 1019.00 1019.12 1019.28 1019.48 1019.68 1019.96 1020.16 1020.36 1020.56 1020.48 1020.68 1020.88 1020.92 1021.08 1021.08 1021.12 1021.28 1021.40
1013.68 1013.92 1014.24 1014.48 1014.76 1015.16 1015.40 1015.80 1016.04 1016.24 1016.44 1016.80 1016.92 1016.92 1017.12 1017.32 1017.48 1017.76 1017.96 1018.08 1018.36 1018.48 1018.56 1018.68 1018.80 1018.88 1019.04 1019.24 1019.48 1019.76 1019.88 1020.04 1020.12 1020.28 1020.56 1020.60 1020.68 1020.76 1020.88 1020.92 1021.04 1021.20
1013.32 1013.64 1013.88 1014.12 1014.40 1014.76 1015.20 1015.60 1015.84 1016.00 1016.20 1016.20 1016.44 1016.72 1016.96 1017.16 1017.40 1017.56 1017.76 1017.92 1018.04 1018.20 1018.36 1018.48 1018.56 1018.72 1018.80 1019.04 1019.24 1019.64 1019.76 1019.96 1020.00 1020.16 1020.44 1020.60 1020.48 1020.60 1020.60 1020.76 1020.96 1021.12
1013.04 1013.28 1013.52 1013.84 1014.16 1014.60 1015.00 1015.24 1015.40 1015.64 1015.84 1016.12 1016.24 1016.40 1016.64 1016.88 1017.16 1017.32 1017.48 1017.72 1017.80 1017.92 1018.12 1018.24 1018.40 1018.48 1018.60 1018.84 1019.08 1019.32 1019.56 1019.80 1019.88 1020.04 1020.28 1020.40 1020.40 1020.32 1020.40 1020.52 1020.72 1020.92
1012.84 1013.08 1013.36 1013.52 1013.92 1014.20 1014.56 1014.80 1015.08 1015.28 1015.52 1015.64 1015.96 1016.28 1016.40 1016.76 1016.92 1017.04 1017.16 1017.32 1017.52 1017.72 1017.88 1018.04 1018.20 1018.36 1018.40 1018.68 1018.92 1019.16 1019.28 1019.44 1019.64 1019.84 1020.08 1020.12 1020.20 1020.28 1020.20 1020.32 1020.44 1020.60
1012.44 1012.64 1012.96 1013.28 1013.68 1013.96 1014.24 1014.48 1014.76 1015.00 1015.12 1015.52 1015.84 1015.84 1016.04 1016.32 1016.52 1016.64 1016.80 1017.00 1017.28 1017.48 1017.64 1017.72 1017.88 1018.04 1018.20 1018.44 1018.72 1018.96 1019.12 1019.16 1019.40 1019.64 1019.88 1019.96 1020.04 1020.16 1020.04 1020.08 1020.20 1020.40
1012.00 1012.40 1012.68 1013.04 1013.40 1013.60 1013.88 1014.12 1014.36 1014.60 1014.80 1015.24 1015.44 1015.60 1015.72 1015.88 1016.08 1016.28 1016.48 1016.72 1017.00 1017.16 1017.36 1017.48 1017.56 1017.76 1017.92 1018.16 1018.40 1018.60 1018.80 1018.96 1019.04 1019.28 1019.52 1019.76 1019.88 1019.84 1019.84 1019.84 1020.08 1020.12
1011.80 1012.04 1012.44 1012.72 1013.08 1013.16 1013.48 1013.64 1013.88 1014.20 1014.44 1014.80 1015.00 1015.24 1015.52 1015.56 1015.68 1015.96 1016.24 1016.52 1016.72 1016.88 1017.04 1017.12 1017.28 1017.48 1017.64 1017.80 1018.00 1018.20 1018.44 1018.64 1018.76 1018.92 1019.04 1019.20 1019.32 1019.40 1019.52 1019.68 1019.76 1019.92
1011.48 1011.76 1012.16 1012.44 1012.64 1012.80 1013.04 1013.20 1013.48 1013.80 1014.08 1014.40 1014.68 1014.96 1015.04 1015.32 1015.56 1015.68 1016.00 1016.24 1016.44 1016.52 1016.64 1016.76 1016.84 1017.04 1017.32 1017.48 1017.60 1017.72 1017.96 1018.20 1018.40 1018.56 1018.68 1018.76 1018.80 1018.92 1019.00 1019.20 1019.40 1019.48
1011.12 1011.44 1011.72 1011.96 1012.20 1012.44 1012.64 1012.84 1013.08 1013.40 1013.68 1013.92 1014.20 1014.56 1014.80 1015.00 1015.28 1015.48 1015.64 1015.88 1015.92 1016.00 1016.12 1016.28 1016.40 1016.64 1016.88 1017.08 1017.28 1017.44 1017.64 1017.80 1017.96 1018.16 1018.28 1018.36 1018.44 1018.52 1018.60 1018.72 1018.88 1018.96
1010.72 1010.96 1011.16 1011.48 1011.76 1011.96 1012.20 1012.48 1012.76 1012.92 1013.20 1013.56 1013.72 1014.08 1014.44 1014.76 1014.92 1015.20 1015.24 1015.36 1015.48 1015.60 1015.76 1015.88 1016.08 1016.24 1016.48 1016.72 1016.92 1017.12 1017.32 1017.52 1017.72 1017.84 1017.96 1018.04 1018.08 1018.12 1018.16 1018.24 1018.32 1018.44
1010.12 1010.36 1010.76 1011.00 1011.24 1011.52 1011.80 1012.00 1012.28 1012.56 1012.76 1013.00 1013.32 1013.76 1014.00 1014.20 1014.48 1014.72 1014.84 1015.00 1015.12 1015.28 1015.32 1015.52 1015.80 1016.00 1016.16 1016.28 1016.48 1016.68 1016.92 1017.12 1017.28 1017.48 1017.68 1017.76 1017.76 1017.80 1017.80 1017.80 1017.88 1017.96
1009.64 1010.00 1010.28 1010.64 1010.92 1011.24 1011.52 1011.76 1011.96 1012.20 1012.44 1012.68 1013.00 1013.24 1013.40 1013.60 1013.80 1014.12 1014.52 1014.76 1014.84 1015.00 1015.12 1015.28 1015.52 1015.64 1015.64 1015.80 1016.12 1016.32 1016.44 1016.72 1016.88 1017.12 1017.32 1017.48 1017.56 1017.52 1017.48 1017.48 1017.56 1017.60
1009.28 1009.68 1010.00 1010.32 1010.68 1010.96 1011.16 1011.40 1011.68 1011.92 1012.16 1012.44 1012.64 1012.80 1013.00 1013.20 1013.48 1013.72 1014.00 1014.28 1014.56 1014.72 1014.84 1015.04 1015.16 1015.08 1015.04 1015.24 1015.44 1015.72 1016.04 1016.24 1016.44 1016.64 1016.84 1017.04 1017.28 1017.32 1017.24 1017.20 1017.24 1017.28
1009.04 1009.44 1009.72 1010.16 1010.32 1010.60 1010.88 1011.16 1011.40 1011.60 1011.88 1012.12 1012.28 1012.48 1012.68 1012.88 1013.16 1013.44 1013.56 1013.72 1014.00 1014.28 1014.56 1014.64 1014.68 1014.56 1014.64 1014.96 1015.16 1015.32 1015.56 1015.84 1016.12 1016.28 1016.40 1016.60 1016.76 1016.92 1017.00 1016.96 1016.92 1016.88
1008.68 1009.08 1009.52 1009.80 1010.08 1010.32 1010.52 1010.72 1011.00 1011.32 1011.60 1011.76 1012.00 1012.24 1012.32 1012.44 1012.80 1012.88 1013.04 1013.24 1013.48 1013.68 1013.96 1014.08 1014.16 1014.08 1014.36 1014.64 1014.88 1015.04 1015.20 1015.32 1015.52 1015.84 1016.00 1016.20 1016.28 1016.44 1016.48 1016.56 1016.60 1016.64
1008.28 1008.76 1009.12 1009.44 1009.68 1009.84 1010.08 1010.40 1010.72 1011.00 1011.24 1011.48 1011.68 1011.64 1011.88 1012.24 1012.28 1012.44 1012.64 1012.72 1013.00 1013.32 1013.44 1013.48 1013.60 1013.60 1014.00 1014.24 1014.44 1014.68 1014.84 1015.04 1015.08 1015.28 1015.60 1015.72 1015.84 1015.92 1016.04 1016.12 1016.20 1016.32
1007.92 1008.36 1008.72 1008.92 1009.16 1009.44 1009.72 1010.04 1010.32 1010.56 1010.64 1010.80 1011.04 1011.32 1011.64 1011.80 1011.88 1012.04 1012.12 1012.36 1012.52 1012.76 1012.92 1013.00 1013.08 1013.08 1013.48 1013.80 1014.04 1014.28 1014.48 1014.80 1014.84 1014.96 1015.08 1015.20 1015.32 1015.40 1015.48 1015.60 1015.68 1015.88
1007.56 1007.92 1008.28 1008.52 1008.76 1009.08 1009.40 1009.68 1009.92 1010.12 1010.36 1010.48 1010.72 1010.96 1011.24 1011.40 1011.48 1011.72 1011.76 1011.84 1012.00 1012.16 1012.40 1012.56 1012.44 1012.60 1013.04 1013.32 1013.60 1013.88 1014.20 1014.60 1014.64 1014.72 1014.76 1014.80 1014.76 1014.80 1014.88 1014.92 1015.00 1015.20
1007.04 1007.48 1007.80 1008.08 1008.44 1008.72 1009.08 1009.40 1009.56 1009.76 1010.04 1010.08 1010.32 1010.44 1010.56 1010.72 1010.96 1011.08 1011.32 1011.44 1011.48 1011.72 1012.04 1012.12 1011.84 1012.12 1012.48 1012.80 1013.12 1013.52 1013.92 1014.28 1014.36 1014.48 1014.52 1014.44 1014.40 1014.36 1014.32 1014.28 1014.40 1014.64
1006.44 1006.92 1007.32 1007.64 1007.96 1008.40 1008.76 1008.96 1009.20 1009.40 1009.52 1009.56 1010.04 1010.16 1010.36 1010.48 1010.56 1010.68 1010.68 1010.92 1011.16 1011.36 1011.56 1011.52 1011.48 1011.60 1011.96 1012.28 1012.64 1013.08 1013.64 1013.84 1014.04 1014.08 1014.08 1014.08 1014.00 1013.88 1013.88 1013.88 1013.96 1014.04
1005.88 1006.28 1006.76 1007.12 1007.56 1008.00 1008.20 1008.32 1008.36 1008.52 1008.80 1008.92 1009.48 1009.76 1009.92 1009.88 1010.00 1010.20 1010.24 1010.36 1010.60 1010.80 1010.80 1011.16 1011.12 1011.12 1011.48 1011.80 1012.16 1012.56 1012.88 1013.24 1013.48 1013.68 1013.68 1013.72 1013.68 1013.60 1013.52 1013.52 1013.44 1013.56
1005.32 1005.72 1006.12 1006.56 1007.04 1007.20 1007.32 1007.64 1007.84 1007.96 1008.00 1008.32 1008.68 1008.96 1009.16 1009.28 1009.56 1009.84 1009.92 1009.96 1009.96 1010.12 1010.32 1010.68 1010.72 1010.72 1010.88 1011.24 1011.60 1012.00 1012.40 1012.56 1012.84 1013.12 1013.32 1013.32 1013.44 1013.36 1013.16 1013.16 1013.16 1013.20
1004.80 1005.28 1005.60 1006.00 1006.36 1006.48 1006.68 1006.88 1006.96 1007.40 1007.80 1008.12 1008.32 1008.48 1008.76 1008.92 1009.12 1009.36 1009.64 1009.56 1009.48 1009.76 1009.88 1010.04 1010.32 1010.28 1010.32 1010.72 1011.04 1011.44 1011.80 1012.00 1012.20 1012.68 1012.88 1012.88 1012.92 1012.96 1013.08 1012.92 1012.88 1012.88
Thickness
5802 5800 5799 5798 5797 5796 5795 5794 5793 5792 5791 5790 5790 5790 5790 5790 5790 5789 5787 5787 5786 5786 5786 5786 5785 5785 5784 5783 5782 5781 5780 5779 5778 5778 5777 5776 5775 5774 5773 5773 5772 5771
5803 5803 5801 5800 5799 5798 5798 5797 5796 5795 5793 5793 5793 5792 5792 5792 5791 5791 5790 5789 5788 5788 5788 5788 5788 5787 5786 5785 5784 5783 5782 5780 5780 5780 5778 5777 5777 5776 5775 5774 5774 5773
5804 5804 5803 5802 5801 5800 5800 5800 5798 5798 5796 5795 5795 5794 5794 5794 5793 5793 5792 5791 5790 5789 5790 5789 5789 5789 5788 5787 5786 5785 5783 5782 5781 5782 5780 5779 5779 5777 5777 5777 5776 5774
5805 5805 5805 5804 5804 5802 5801 5800 5799 5799 5798 5797 5797 5797 5796 5796 5795 5794 5793 5793 5792 5791 5791 5791 5791 5790 5790 5789 5787 5786 5784 5783 5783 5782 5780 5780 5780 5779 5778 5778 5776 5776
5806 5806 5806 5805 5805 5803 5802 5801 5800 5800 5800 5799 5799 5799 5798 5797 5796 5796 5795 5794 5794 5793 5793 5792 5792 5792 5791 5790 5789 5786 5785 5784 5784 5783 5781 5780 5780 5780 5780 5779 5777 5776
5806 5806 5807 5806 5806 5805 5803 5803 5802 5802 5802 5802 5801 5801 5800 5799 5798 5797 5797 5796 5796 5795 5794 5793 5793 5793 5793 5792 5789 5788 5786 5785 5784 5783 5781 5780 5781 5781 5781 5780 5778 5778
5806 5806 5807 5806 5806 5805 5804 5804 5804 5804 5804 5803 5802 5802 5801 5801 5800 5799 5799 5799 5798 5796 5796 5795 5794 5794 5793 5792 5790 5788 5787 5786 5784 5783 5781 5781 5781 5781 5781 5781 5780 5779
5807 5807 5807 5807 5806 5806 5805 5805 5805 5805 5805 5804 5803 5804 5804 5803 5801 5801 5801 5800 5799 5798 5797 5797 5796 5795 5794 5793 5791 5789 5788 5787 5786 5784 5781 5781 5780 5780 5782 5782 5781 5780
5808 5808 5807 5807 5807 5806 5807 5807 5807 5807 5807 5805 5805 5805 5805 5805 5804 5803 5802 5801 5800 5799 5799 5798 5797 5797 5795 5794 5792 5791 5789 5788 5787 5785 5783 5782 5781 5781 5782 5782 5781 5780
5809 5808 5808 5807 5808 5808 5809 5809 5809 5808 5808 5807 5807 5806 5806 5805 5805 5804 5803 5802 5800 5800 5800 5799 5799 5798 5797 5796 5795 5793 5791 5790 5788 5787 5785 5784 5784 5783 5783 5783 5782 5782
5810 5809 5809 5808 5809 5809 5810 5810 5810 5810 5809 5809 5808 5807 5807 5806 5805 5805 5804 5802 5802 5801 5801 5801 5801 5800 5798 5797 5797 5795 5794 5791 5790 5788 5787 5787 5786 5786 5785 5785 5784 5783
5811 5811 5810 5811 5811 5811 5811 5811 5811 5811 5810 5810 5810 5808 5808 5807 5806 5805 5805 5804 5804 5803 5803 5803 5803 5802 5800 5799 5798 5797 5796 5793 5792 5790 5789 5788 5788 5788 5788 5788 5786 5786
5814 5813 5813 5812 5812 5812 5812 5812 5812 5812 5812 5812 5812 5810 5808 5808 5807 5807 5806 5806 5805 5805 5804 5804 5804 5803 5802 5801 5800 5799 5797 5795 5793 5791 5790 5789 5789 5790 5790 5790 5790 5789
5816 5815 5814 5814 5814 5813 5813 5813 5814 5814 5814 5813 5812 5811 5811 5811 5810 5808 5808 5807 5807 5807 5806 5805 5804 5803 5803 5802 5801 5800 5798 5796 5794 5792 5790 5790 5790 5791 5792 5792 5792 5792
5817 5816 5815 5814 5814 5813 5813 5815 5815 5814 5814 5814 5813 5813 5814 5813 5813 5811 5810 5809 5809 5808 5807 5807 5805 5805 5805 5805 5803 5802 5800 5798 5796 5794 5792 5791 5791 5792 5793 5794 5794 5794
5817 5816 5815 5814 5815 5815 5815 5815 5815 5815 5814 5815 5815 5815 5815 5815 5814 5813 5812 5811 5810 5809 5809 5807 5807 5807 5808 5807 5805 5804 5802 5800 5798 5796 5795 5793 5793 5793 5794 5795 5796 5796
5817 5816 5815 5815 5815 5816 5816 5815 5815 5815 5816 5816 5816 5816 5816 5816 5815 5814 5814 5814 5813 5812 5810 5809 5809 5810 5809 5808 5807 5805 5804 5802 5800 5798 5797 5797 5796 5795 5796 5797 5797 5798
5818 5817 5815 5815 5816 5816 5817 5817 5816 5816 5817 5816 5816 5817 5817 5818 5817 5817 5817 5817 5815 5815 5813 5812 5812 5812 5811 5809 5807 5806 5805 5804 5803 5802 5800 5800 5799 5799 5799 5799 5799 5799
5820 5818 5817 5817 5817 5818 5818 5818 5818 5818 5818 5818 5818 5818 5819 5819 5819 5819 5819 5819 5818 5817 5816 5816 5816 5815 5813 5810 5809 5808 5807 5806 5806 5805 5804 5803 5803 5802 5802 5802 5801 5801
5821 5820 5819 5819 5819 5819 5819 5819 5819 5820 5820 5820 5820 5819 5820 5820 5821 5821 5821 5821 5820 5819 5818 5818 5819 5818 5815 5812 5810 5809 5808 5807 5807 5807 5807 5807 5807 5806 5806 5805 5805 5803
5823 5822 5821 5821 5821 5821 5821 5821 5821 5821 5821 5821 5822 5822 5821 5822 5822 5822 5822 5823 5823 5822 5821 5820 5821 5819 5817 5814 5812 5811 5809 5808 5808 5809 5808 5809 5810 5810 5809 5809 5809 5807
5825 5824 5823 5823 5823 5822 5822 5821 5822 5822 5823 5823 5823 5823 5824 5824 5824 5824 5824 5823 5823 5823 5822 5822 5823 5822 5819 5817 5815 5812 5810 5809 5809 5809 5810 5810 5811 5812 5812 5812 5812 5811
5829 5827 5826 5825 5825 5824 5823 5823 5824 5824 5824 5825 5824 5824 5824 5825 5825 5825 5826 5825 5824 5824 5823 5824 5824 5823 5821 5819 5816 5813 5812 5811 5810 5811 5811 5812 5812 5814 5814 5815 5815 5814
5832 5831 5829 5828 5827 5826 5826 5826 5827 5827 5827 5827 5826 5825 5826 5827 5826 5826 5827 5827 5826 5826 5826 5825 5824 5825 5823 5820 5818 5815 5814 5814 5813 5812 5813 5813 5814 5814 5816 5817 5817 5816
5836 5835 5833 5832 5830 5830 5830 5830 5830 5831 5831 5830 5828 5828 5828 5828 5827 5826 5827 5828 5829 5828 5827 5826 5825 5826 5825 5823 5820 5818 5817 5817 5816 5814 5814 5814 5814 5815 5816 5818 5818 5817
5839 5838 5836 5836 5835 5834 5835 5835 5834 5834 5832 5831 5830 5830 5829 5829 5829 5828 5827 5829 5830 5829 5829 5828 5827 5827 5827 5826 5823 5820 5819 5819 5817 5817 5817 5816 5815 5816 5816 5817 5817 5818